Regional Weather Roundup
Issued by NWS Pendleton, OR

Home | Current Version | Previous Version | Text Only | Print | Product List | Glossary On
Versions: 1 2 3 4 5 6 7 8 9 10 11 12 13 14 15 16 17 18 19 20 21 22 23 24 25 26 27 28 29 30 31 32 33 34 35 36 37 38 39 40 41 42 43 44 45 46 47 48 49 50
000
ASUS46 KPDT 281925
RWRPDT
PENDLETON REGIONAL WEATHER ROUNDUP
NATIONAL WEATHER SERVICE PENDLETON OREGON
1200 PM PDT FRI AUG 28 2015

NOTE: FAIR INDICATES FEW OR NO CLOUDS BELOW 12,000 FEET WITH NO
SIGNIFICANT WEATHER AND/OR OBSTRUCTIONS TO VISIBILITY.

# INDICATES UNOFFICIAL STATION AND DATA

WAZ520-282010-
EAST SLOPES OF WASHINGTON CASCADES

CITY            SKY/WX      TMP DP  RH  WIND    PRES   REMARKS
#BULLFROG 2SW   N/A         69  48  47  W5      27.56F
#BUMPING DAM    N/A         61  N/A N/A S2      N/A
#CLE ELUM HS    N/A         72  48  43  CALM    29.90F
#CLE ELUM LAKE  N/A         68  49  51  CALM    29.80F
#CLIFFDEL 2NW   N/A         67  49  52  W2      N/A
#GLENWOOD       N/A         71  59  66  S5      29.85F
#MANASTASH CYN  N/A         67  51  56  NW1     29.95F
#NELSON         N/A         70  51  51  CALM    29.84F
#NELSON 3SW     N/A         67  50  54  CALM    30.02F
#NILE           N/A         71  51  49  W3      29.12F
#RONALD 2NW     N/A         68  49  51  CALM    29.86F
#SNOWDEN        N/A         68  39  35  CALM    N/A
#TEANAWAY 4NE   N/A         71  53  53  W3      N/A
#TROUT LAKE 1NE N/A         71  58  64  N3      29.86F
$$

WAZ521-282010-
SIMCOE HIGHLANDS

CITY            SKY/WX      TMP DP  RH  WIND    PRES   REMARKS
#BICKLETON HS   N/A         71  40  32  SW6     N/A
#CENTERVILLE 4W N/A         73  54  51  CALM    29.71F
#CENTERVILLE 1SWN/A         72  52  49  CALM    29.83F
#GOLDENDALE     N/A         71  53  53  S1      N/A
#GOLDENDALE 1NE N/A         72  41  33  SW2     N/A
#GOLDENDALE 5WNWN/A         72  55  55  W3      29.84F
#GOODNOE HILLS  N/A         76  54  46  W8      N/A
#LYLE 6NE       N/A         69  53  57  SE1     29.84F
$$

WAZ026-282010-
KITTITAS VALLEY

CITY            SKY/WX      TMP DP  RH  WIND    PRES   REMARKS
ELLENSBURG AP   CLOUDY      73  49  43  S7      29.94S
YTC-OPS AREA    PTCLDY      70  48  46  S12     29.96F
#ELLENSBURG CWU N/A         71  50  47  CALM    29.80F
#ELLENSBURG 3NE N/A         70  53  55  CALM    29.94S
#ELLENSBURG 1E  N/A         71  51  49  CALM    N/A
#KITTITAS 4N    N/A         72  54  53  NW5     29.94F
#KITTITAS 3S    N/A         68  54  61  CALM    29.85S
#THORP 6N       N/A         71  50  47  N8      29.83F
$$

WAZ027-282010-
YAKIMA VALLEY

CITY            SKY/WX      TMP DP  RH  WIND    PRES   REMARKS
SUNNYSIDE AP    CLOUDY      76  55  48  E7      29.89F
YAKIMA AIRPORT  MOCLDY      78  54  43  NE7     29.91F
YAKIMA-VAGABOND MOCLDY      76  51  42  W5      29.92F
#GRANDVIEW      N/A         76  53  45  SE1     29.87F
#MABTON         N/A         77  56  48  E3      29.91F
#MOXEE 2E       N/A         76  37  24  S8      29.83F
#NACHES 2SW     N/A         74  55  51  CALM    29.94F
#OUTLOOK DOT    N/A         N/A N/A N/A E7      N/A
#SELAH 8E       N/A         76  53  45  SW13    N/A
#TERRACE HTS    N/A         75  57  54  S1      29.81F
#TOPPENISH      N/A         74  58  57  E1      29.79F
#WHITE SWAN 5E  N/A         79  58  49  SW7     29.84F
#WILEY CITY 3W  N/A         74  50  43  N1      29.88F
$$

WAZ028-282010-
LOWER COLUMBIA BASIN...WASHINGTON

CITY            SKY/WX      TMP DP  RH  WIND    PRES   REMARKS
PASCO           MOCLDY      80  50  35  S6      29.93R SMOKE
#BENTON CITY    N/A         76  52  43  S7      29.78S
#CONNELL 5N     N/A         78  48  35  E3      29.86F
#CONNELL 5NW    N/A         76  54  46  SE3     29.84F
#ELTOPIA 6NW    N/A         74  58  57  S5      28.90S
#KAHLOTUS       N/A         76  49  39  SW7     29.88F
#KENNEWICK      N/A         69  48  47  W5      27.56F
#KENNEWICK 3S   N/A         76  51  42  N3      29.89F
#PATERSON       N/A         76  55  48  SE1     29.87F
#PROSSER        N/A         77  49  37  N1      29.85F
#SAGEMOOR 2W    N/A         76  57  52  CALM    29.74S
#TOUCHET 2S     N/A         82  51  34  S6      29.88F
#WEST PASCO     N/A         79  55  44  S2      29.89R
$$

WAZ029-282010-
FOOTHILLS OF THE BLUES...WASHINGTON

CITY            SKY/WX      TMP DP  RH  WIND    PRES   REMARKS
WALLA WALLA AP  CLOUDY      82  45  27  SW6     29.97F
#DAYTON SCHOOL  N/A         78  42  28  N2      29.97F
#LOWDEN 2SE     N/A         82  52  35  CALM    29.89F
#PLEASANT VIEW 1N/A         77  46  33  S8      29.91F
#PRESCOTT       N/A         80  51  36  CALM    29.89F
#SUDBURY        N/A         82  N/A N/A CALM    N/A
#WHITMAN COLLEGEN/A         80  50  35  SW2     29.94F
#WAITSBURG 8N   N/A         77  22  13  S8      29.82S
#WALLA WALLA U  N/A         82  52  35  CALM    29.89F
#WHITMAN MISSIONN/A         82  50  33  S5      29.91F
$$

WAZ030-282010-
BLUE MOUNTAINS...WASHINGTON

CITY            SKY/WX      TMP DP  RH  WIND    PRES   REMARKS
$$

ORZ009-041-WAZ024-282010-
COLUMBIA RIVER GORGE

CITY            SKY/WX      TMP DP  RH  WIND    PRES   REMARKS
THE DALLES AP   CLOUDY      76  53  45  N5      29.91F
#ARLINGTON AIRPON/A         77  52  42  SW5     30.57
#CELILO DOT     N/A         76  56  50  W2      N/A
#LYLE           N/A         74  56  53  W2      29.91
#MOSIER 1S      N/A         73  43  34  CALM    29.93F

$$

ORZ510-282010-
NORTH CENTRAL OREGON

CITY            SKY/WX      TMP DP  RH  WIND    PRES   REMARKS
#CHENOWITH 1W   N/A         68  52  57  N6      N/A
#DUFUR 9E       N/A         68  49  51  CALM    29.90F
#GRASS VALLEY 1SN/A         76  49  39  CALM    29.88F
#KENT DOT       N/A         78  48  35  N7      N/A
#MAUPIN SCHOOL  N/A         77  51  40  CALM    29.93F
#MORO SCHOOL    N/A         73  55  53  CALM    29.96F
#SHANIKO 5WSW   N/A         74  45  35  S8      N/A
#SHANIKO 4NW    N/A         74  40  29  SW3     30.03F
#TYGH VALLEY 2NEN/A         73  52  48  CALM    29.86F
#WAPANITIA AIRPON/A         74  49  41  NE2     29.86F
#WASCO DOT      N/A         76  57  52  NW2     N/A
#WASCO 5NE      N/A         73  52  48  CALM    29.86F
$$

ORZ511-282010-
CENTRAL OREGON

CITY            SKY/WX      TMP DP  RH  WIND    PRES   REMARKS
BEND AIRPORT    CLOUDY      79  39  24  S9      30.02F
PRINEVILLE AP   CLOUDY      79  41  26  E6      30.00F
REDMOND AIRPORT PTCLDY      78  40  26  SE8     29.99F
#BEND 1SW       N/A         76  44  32  W1      N/A
#BEND-AWBREY    N/A         76  48  37  SW3     29.83F
#BEND-KIM LN    N/A         77  46  33  SE1     29.99F
#CULVER         N/A         78  47  34  SE2     29.93F
#LAKE BILLY CHINN/A         81  -1   4  SW3     29.99F
#MADRAS         N/A         76  46  34  SE3     N/A
#POWELL BUTTE 3EN/A         73  45  37  SE8     N/A
#POWELL BUTTE   N/A         78  45  31  E5      29.63F
#PRINEVILLE 3N  N/A         78  50  38  E3      29.79F
#WARM SPRINGS   N/A         79  49  35  CALM    29.92F

$$


ORZ509-282010-
EAST SLOPES OF OREGON CASCADES

CITY            SKY/WX      TMP DP  RH  WIND    PRES   REMARKS
#BLUE BOX PASS  N/A         65   9  11  CALM    N/A
#CAMP SHERMAN   N/A         77  43  30  CALM    29.84F
#LA PINE 4NW    N/A         72  46  39  SW2     29.89F
#SISTERS AIRPOR N/A         74  55  51  CALM    30.17S
#SISTERS 3N     N/A         76  50  40  CALM    30.02S
#SUNRIVER       N/A         72  47  41  SW3     29.75F
#TUMALO 3W      N/A         74  44  34  S6      29.73S

$$

ORZ044-282010-
LOWER COLUMBIA BASIN...OREGON

CITY            SKY/WX      TMP DP  RH  WIND    PRES   REMARKS
HERMISTON       CLOUDY      79  50  36  W7      29.94S
#BOARDMAN SCHOOLN/A         78  52  40  CALM    29.91F
#BOARDMAN 8SW   N/A         78  54  43  W2      29.87F
#ECHO 8SW       N/A         78  49  36  NW2     29.94F
#IONE SCHOOL    N/A         77  47  35  NE1     29.89F
#IRRIGON 4NW    N/A         78  54  43  SW6     N/A
#UMATILLA SCHOOLN/A         79  59  50  CALM    29.97
#UMATILLA       N/A         80  51  36  CALM    29.83F
$$

ORZ507-282010-
NORTHERN FOOTHILLS OF THE BLUES

CITY            SKY/WX      TMP DP  RH  WIND    PRES   REMARKS
PENDLETON AIRPT CLOUDY      79  44  29  SE6     29.97F
#ADAMS 3WNW     N/A         79  46  31  CALM    29.89F
#ATHENA         N/A         78  47  34  CALM    29.92F
#CAYUSE         N/A         80  47  31  NE2     29.88F
#HELIX SCHOOL   N/A         76  46  34  S1      29.89F
#HELIX 3N       N/A         76  45  33  S8      29.96F
#HOLDMAN 6E     N/A         76  46  34  NW3     29.71F
#M-F GROVE ELEM N/A         82  43  25  SW2     29.95F
#M-FREEWATER 5SEN/A         79  50  36  W1      29.96F
#PENDLETON DNTN N/A         80  47  31  CALM    29.98S
#PDT AQUATIC CTRN/A         78  46  32  E3      29.94S
#PDT SUNRIDGE   N/A         80  47  31  CALM    29.97F
#PENDLETON 7NW  N/A         78  50  38  CALM    32.07S
#TUTUILLA       N/A         79  47  32  NE3     29.91F
#UMAPINE 2E     N/A         82  53  37  CALM    29.91F
#WESTON SCHOOL  N/A         77  40  26  NW1     29.91F

$$

ORZ508-282010-
SOUTHERN FOOTHILLS OF THE BLUES

CITY            SKY/WX      TMP DP  RH  WIND    PRES   REMARKS
#AJAX           N/A         74  41  30  NE1     29.91F
#CONDON SCHOOL  N/A         77  46  33  SW2     29.96F
#CONDON 5W      N/A         73  41  31  S3      29.98F
#FOSSIL SCHOOL  N/A         66  51  58  CALM    29.94S
#HEPPNER EOC    N/A         80  46  30  CALM    29.79F
#HEPPNER 4NE    N/A         77  45  32  SE6     29.85F
#LEXINGTON 2SE  N/A         81  47  30  W2      29.90F
#OLEX 4N        N/A         75  50  41  SW2     29.93S
#RUGGS 5NE      N/A         83  47  28  S2      30.17F
#RUGGS 2SW      N/A         79  44  29  SE2     29.86F

$$

ORZ502-503-282010-
BLUE MOUNTAINS

CITY            SKY/WX      TMP DP  RH  WIND    PRES   REMARKS
MEACHAM         CLOUDY      74  41  30  CALM    30.08F
#BATTLE MTN DOT N/A         70  55  59  S5      N/A
#HEPPNER 15SE   N/A         73  44  35  CALM    29.99F
#LONG CREEK HS  N/A         75  45  34  CALM    30.03F
#N POWDER DOT   N/A         73  52  48  NE12    N/A
#PIKES PEAK     N/A         70  44  39  SW10    27.99S
#TOLLGATE       N/A         66  43  43  CALM    30.00F
#TROY SCHOOL    N/A         78  50  38  CALM    29.74F
#UKIAH          N/A         77  46  33  E2      29.94F
#WESTON 4E      N/A         75  45  34  CALM    29.83F
$$

ORZ505-282010-
JOHN DAY BASIN

CITY            SKY/WX      TMP DP  RH  WIND    PRES   REMARKS
JOHN DAY        CLOUDY      76  41  28  CALM    30.08F
#JOHN DAY KJDY  N/A         77  -31  1  NE1     30.23R
#DAYVILLE SCHOOLN/A         79  42  27  E1      29.98F
#MITCHELL       N/A         78  50  38  E1      30.16F
#MITCHELL 8NW   N/A         75  42  31  CALM    30.02F
#MONUMENT HS    N/A         79  43  28  N6      29.99F
#MT. VERNON 5SE N/A         73  42  33  NW1     30.06F
#SPRAY SCHOOL   N/A         79  N/A N/A CALM    N/A
$$

ORZ506-282010-
OCHOCO AND JOHN DAY HIGHLANDS

CITY            SKY/WX      TMP DP  RH  WIND    PRES   REMARKS
#PINE MTN OBS   N/A         64  40  41  SE14    N/A
#PRAIRIE CITY   N/A         76  44  32  E1      29.90F
#SENECA         N/A         73  N/A N/A CALM    N/A
#SENECA 9NW     N/A         73  42  33  CALM    29.90F
$$

ORZ049-282010-
GRANDE RONDE VALLEY

CITY            SKY/WX      TMP DP  RH  WIND    PRES   REMARKS
LA GRANDE       CLOUDY      77  41  28  E7      30.04F
#COVE           N/A         76  51  42  CALM    30.07F
#COVE SCHOOL    N/A         77  46  33  CALM    30.07F
#COVE 6NW       N/A         76  46  34  CALM    29.95F
#ELGIN 3N       N/A         79  42  27  S5      30.00F
#ELGIN 1E       N/A         79  47  32  CALM    N/A
#ISLAND CITY 4N N/A         73  63  71  CALM    29.94F
#LADD CYN DOT   N/A         77  50  39  NE3     N/A
#LA GRANDE ELEM N/A         76  47  36  N1      30.05F
#UNION 1S       N/A         75  45  34  NW3     29.82F
$$

ORZ050-282010-
WALLOWA COUNTY

CITY            SKY/WX      TMP DP  RH  WIND    PRES   REMARKS
#ENTERPRISE HS  N/A         73  47  40  CALM    30.08F
#IMNAHA SCHOOL  N/A         81  44  27  N3      29.97F
#IMNAHA 10S     N/A         67  41  39  S1      30.06S
#JOSEPH 3N      N/A         71  44  38  S2      30.11S
#JOSEPH 3W      N/A         68  42  39  CALM    29.97S
#LOSTINE        N/A         75  47  37  CALM    29.72F
#MT HOWARD 8000 N/A         63  31  30  SW5     30.33F
#PROMISE 1S     N/A         74  47  38  E6      30.01S
#WALLOWA SCHOOL N/A         78  46  32  NW1     30.00F



$$



USA.gov is the U.S. government's official web portal to all federal, state and local government web resources and services.